EW2985 Weather Reports


time (UTC)temp
C
wind
direction
speed
KPH
gust
KPH
rain 1hr
cm
rain 24hr
cm
rain mn
cm
humidity
%
barometer
mb
20260505034513 17 278 0.0 3.2 0.00 0.00 0.00 57 1008.9
20260505033012 17 252 0.0 4.8 0.00 0.00 0.00 56 1008.8
20260505031530 17 262 0.0 3.2 0.00 0.00 0.00 56 1008.8
20260505030012 17 240 0.0 3.2 0.00 0.00 0.00 56 1009.0
20260505024518 17 239 0.0 3.2 0.00 0.00 0.00 55 1009.1
20260505023011 17 345 0.0 3.2 0.00 0.00 0.00 54 1009.1
20260505021513 17 349 0.0 1.6 0.00 0.00 0.00 54 1009.0
20260505020011 18 202 0.0 3.2 0.00 0.00 0.00 53 1009.1
20260505014505 18 90 0.0 3.2 0.00 0.00 0.00 52 1009.3
20260505013004 18 146 0.0 1.6 0.00 0.00 0.00 50 1009.2
20260505011503 18 96 0.0 3.2 0.00 0.00 0.00 49 1009.1
20260505004600 18 13 0.0 4.8 0.00 0.00 0.00 47 1008.7
20260505003100 19 249 0.0 4.8 0.00 0.00 0.00 46 1008.7
20260505001601 20 58 0.0 3.2 0.00 0.00 0.00 44 1008.6
20260505000115 20 252 1.6 6.4 0.00 0.00 0.00 42 1008.6
20260504234556 21 255 0.0 6.4 0.00 0.00 0.00 40 1008.6
20260504233100 22 235 0.0 3.2 0.00 0.00 0.00 38 1008.5
20260504231556 23 25 0.0 4.8 0.00 0.00 0.00 36 1008.5
20260504230106 25 239 0.0 4.8 0.00 0.00 0.00 34 1008.5
20260504224553 25 233 0.0 4.8 0.00 0.00 0.00 34 1008.6
20260504223056 25 259 0.0 3.2 0.00 0.00 0.00 34 1008.6
20260504221601 26 248 1.6 4.8 0.00 0.00 0.00 33 1008.5
20260504220055 26 212 0.0 4.8 0.00 0.00 0.00 33 1008.6
20260504214550 26 35 1.6 4.8 0.00 0.00 0.00 32 1008.6
20260504213047 26 240 1.6 8.0 0.00 0.00 0.00 31 1008.6
20260504211547 25 269 0.0 11.3 0.00 0.00 0.00 33 1008.6
20260504210046 26 226 1.6 6.4 0.00 0.00 0.00 31 1008.6
20260504204542 25 236 1.6 9.7 0.00 0.00 0.00 32 1008.7
20260504203041 26 8 1.6 8.0 0.00 0.00 0.00 32 1008.8
20260504201540 25 57 3.2 8.0 0.00 0.00 0.00 30 1009.0
20260504200036 25 267 3.2 9.7 0.00 0.00 0.00 33 1009.1
20260504194536 24 312 1.6 12.9 0.00 0.00 0.00 33 1009.5
20260504193033 25 226 4.8 12.9 0.00 0.00 0.00 33 1009.6
20260504191529 24 274 1.6 8.0 0.00 0.00 0.00 33 1009.9
20260504190025 23 231 4.8 9.7 0.00 0.00 0.00 34 1010.1
20260504184523 23 91 3.2 9.7 0.00 0.00 0.00 32 1010.3
20260504183020 23 235 1.6 12.9 0.00 0.00 0.00 35 1010.5
20260504181518 23 232 3.2 8.0 0.00 0.00 0.00 34 1010.5
20260504180015 22 235 3.2 11.3 0.00 0.00 0.00 35 1010.8
20260504174513 22 39 0.0 9.7 0.00 0.00 0.00 38 1010.9
20260504173010 22 208 3.2 9.7 0.00 0.00 0.00 36 1011.2
20260504171507 21 259 0.0 6.4 0.00 0.00 0.00 40 1011.5
20260504081537 8 261 0.0 3.2 0.00 0.00 0.00 57 1014.3
20260504050016 9 276 0.0 3.2 0.00 0.00 0.00 55 1014.5
20260504044515 9 228 0.0 1.6 0.00 0.00 0.00 56 1014.5
20260504043014 9 226 0.0 3.2 0.00 0.00 0.00 55 1014.4
20260504041511 10 246 0.0 3.2 0.00 0.00 0.00 54 1014.3
20260504040008 10 246 0.0 3.2 0.00 0.00 0.00 53 1014.1